User: anonymous   Login
Location: Bílinka
(49.3579°N, 14.3767°E)
Time: 05:25:22
(UTC+00:00)
Language:

Lacrosse 5 rocket - Orbit

View from above orbital plane
View from above orbital plane
View from above satellite
View from above satellite

Ground track
Ground track

The orbit data is extracted from the following two-line orbital elements,

1 28647U 05016B   24170.89178944  .00005036  00000-0  22757-3 0  9993
2 28647  56.9953  21.6193 0092081 277.4044  81.6544 15.18979986280771
Epoch (UTC): 18 June 2024 21:24:10
Eccentricity: 0.0092081
inclination: 56.9953°
perigee height: 445 km
apogee height: 572 km
right ascension of ascending node: 21.6193°
argument of perigee: 277.4044°
revolutions per day: 15.18979986
mean anomaly at epoch: 81.6544°
orbit number at epoch: 28077

The dashed part of the orbit path shows where the satellite is in the earth's shadow,  

DLR